Flag for Canada Weather past 2 weeks in Resolute Bay, Nunavut, Canada

Now
7 °F

Sunny.


Feels Like: -8 °F
Forecast: -1 / 7 °F
Wind: 10 mph from Northwest

Location: Resolute

Current Time: May 5, 2015 at 11:20:58 AM

Latest Report: May 5, 2015 at 11:00 AM


Visibility: 15 mi

Pressure: 30.11 "Hg

Humidity: 66%

Dew point: -2 °F

Location of Resolute BayLocation

Historic Weather in Resolute Bay — Graph

°F

Resolute Bay temperature yesterday

Maximum temperature yesterday: 10 °F (at 1:00 PM)
Minimum temperature yesterday: 1 °F (at 11:00 PM)
Average temperature yesterday: 7 °F

Past Weeks' High & Low Weather Summary

 TemperatureHumidityPressure
High18 °F (Apr 25, 6:00 PM)92% (Apr 22, 6:00 PM)30.96 "Hg (Apr 22, 6:00 PM)
Low-8 °F (Apr 21, 9:00 PM)56% (Apr 24, 11:00 AM)29.97 "Hg (May 2, 12:00 PM)
Average8 °F78%30.36 "Hg
* Reported Apr 20 10:00 AM — May 5 10:00 AM, Resolute Bay, Weather by CustomWeather, © 2015

Note: Actual official high and low records may vary slightly from our data, if they occured in-between our weather recording intervals... More about our weather records

Advertising

Resolute Bay weather history for previous 24 hours

 ConditionsComfort  
Time TempWeatherWind HumidityBarometerVisibility
10:00 AM
Tue, May 5
7 °FSunny.3 mph66%30.11 "Hg15 mi
9:00 AM7 °FPassing clouds.5 mph66%30.10 "Hg15 mi
8:00 AM3 °FSunny.No wind72%30.10 "Hg15 mi
7:00 AM3 °FSunny.No wind72%30.10 "Hg15 mi
6:00 AM1 °FSunny.17 mph71%30.10 "Hg15 mi
5:00 AM1 °FSunny.9 mph71%30.11 "Hg15 mi
4:00 AM1 °FSunny.No wind71%30.11 "Hg15 mi
3:00 AM1 °FSunny.3 mph71%30.11 "Hg15 mi
2:00 AM1 °FSunny.7 mph71%30.11 "Hg15 mi
1:00 AM3 °FPassing clouds.6 mph72%30.11 "Hg15 mi
12:00 AM0 °FPassing clouds.10 mph78%30.12 "Hg15 mi
11:00 PM
Mon, May 4
1 °FPassing clouds.8 mph78%30.13 "Hg15 mi
10:00 PM3 °FPassing clouds.6 mph78%30.13 "Hg15 mi
9:00 PM5 °FScattered clouds.5 mph78%30.14 "Hg15 mi
8:00 PM5 °FScattered clouds.5 mph78%30.14 "Hg15 mi
7:49 PM5 °FPassing clouds.9 mph78%30.14 "Hg15 mi
7:00 PM7 °FPassing clouds.21 mph78%30.13 "Hg15 mi
6:00 PM9 °FPassing clouds.14 mph78%30.14 "Hg15 mi
5:00 PM9 °FPassing clouds.12 mph78%30.14 "Hg15 mi
3:00 PM10 °FPassing clouds.21 mph72%30.14 "Hg15 mi
2:00 PM9 °FPassing clouds.6 mph78%30.14 "Hg15 mi
1:00 PM10 °FPassing clouds.7 mph72%30.14 "Hg15 mi
12:00 PM9 °FPassing clouds.6 mph72%30.14 "Hg15 mi
11:00 AM9 °FScattered clouds.15 mph72%30.14 "Hg15 mi
Weather by CustomWeather, © 2015

See weather overviewHow to use our weather pages